Location: Carri�res
(48.9069°N, 2.1792°E)
Time: 13:05:33
(UTC+00:00)

YAOGAN 1 - Pass Details

Date: 17 January 2021
Orbit: 618 x 620 km, 97.9° (Epoch: 25 February)

Event Time Altitude Azimuth Distance (km) Brightness Sun altitude
Rises 17:38:25 0° 139° (SE) 2,889 5.8 -11.7°
Reaches altitude 10° 17:40:45 10° 129° (SE) 1,987 4.8 -12.1°
Maximum altitude 17:44:36 32° 67° (ENE) 1,066 3.2 -12.7°
Drops below altitude 10° 17:48:28 10° 4° (N) 2,001 5.0 -13.3°
Sets 17:50:49 0° 354° (N) 2,912 5.9 -13.7°
